Intelsat IS-33e

operational
NORAD ID: 41748 Int'l Des: 2016-053 Owner: INTELU Country: US
HEOCIRCULAR

Über Intelsat IS-33e

Beschreibung wird geladen...

Live-Position

3D-Globus wird geladen...

Nächste Überflüge

Höhenverlauf

Altitude vs Time

uPlot chart will show altitude changes over time

Zweizeiliger Elementsatz

1 41748U 16053B 26061.10647155 -.00000208 00000-0 00000+0 0 9993
2 41748 1.2979 85.8342 0024633 189.6246 11.0555 1.00165580 35177
Epoch: 2. März 2026 • Age: 27 hours

Aktueller Status

Höhe 35716.9 km
Geschwindigkeit 3.08 km/s
Subsatellitenpunkt -0.57°S, 88°E
Startdatum 24. Aug. 2016
Alter 9.5 years
Typ communications

Technische Details

Klassifizierung Payload
Masse 6552.00 kg
Trockenmasse 2946.00 kg
Gesamtmasse 6552.00 kg
Länge 7.50 m
Durchmesser 3.00 m
Spannweite 44.00 m
Form Box + 2 panels
Hersteller BOES
Bus-Typ BSS-702MP
Phasenstatus In Orbit
Besitzer/Staat INTELU/US

Große Konstellationen

Loading constellations...